Regional Weather Roundup
Issued by NWS

Home | Current Version | Previous Version | Graphics & Text | Print | Product List | Glossary On
Versions: 1 2 3 4 5 6 7 8 9 10 11 12 13 14 15 16 17 18 19 20 21 22 23 24 25 26 27 28 29 30 31 32 33 34 35 36 37 38 39 40 41 42 43 44 45 46 47 48 49 50
864
ASUS43 KDTX 250501
RWRMI
MICHIGAN HOURLY REGIONAL WEATHER ROUNDUP
NATIONAL WEATHER SERVICE DETROIT/PONTIAC MI
100 AM EDT SAT MAR 25 2017

NOTE: "FAIR" INDICATES FEW OR NO CLOUDS BELOW 12,000 FEET WITH NO
SIGNIFICANT WEATHER AND/OR OBSTRUCTION TO VISIBILITY.

MIZ047>049-052>055-059>063-066>070-074>076-081>083-250600-
SOUTHEAST LOWER MICHIGAN

CITY           SKY/WX    TMP DP  RH WIND       PRES   REMARKS
ADRIAN         CLOUDY    60  53  77 W3        30.05R
ALMA           CLOUDY    37  36  93 NE10      30.13S WCI  30
ANN ARBOR      CLOUDY    46  40  79 NE9       30.07S
BAD AXE        CLOUDY    36  34  92 NE9       30.15R WCI  29
CARO           CLOUDY    38  36  91 CALM      30.15R
DETROIT CITY   CLOUDY    45  39  79 N9        30.09F
DETROIT        CLOUDY    47  39  74 NE9       30.09F
FLINT          CLOUDY    41  35  79 NE12      30.12R
GROSSE ILE     CLOUDY    46  39  77 NE9       30.07S
HILLSDALE      CLOUDY    61  52  72 SW8       30.03S
HOWELL         HVY RAIN  44  38  81 E8        30.07F

CITY           SKY/WX    TMP DP  RH WIND       PRES   REMARKS
JACKSON        CLOUDY    48  41  76 NE6       30.07R
LAMBERTVILLE   CLOUDY    67  53  59 W6        30.04R
LANSING        LGT RAIN  42  36  79 NE7       30.11R
LAPEER         CLOUDY    39  36  86 N6        30.13R
MASON          CLOUDY    44  42  93 NE6       30.09S
MONROE         CLOUDY    48  42  80 NE8       30.07R
MT. CLEMENS    CLOUDY    42  41  95 N7        30.07F
PONTIAC        CLOUDY    42 N/A N/A NE8       30.08S
PORT HOPE        N/A     35  33  92 N10       30.14R WCI  27
PORT HURON     LGT RAIN  39  36  87 CALM      30.11R
TRI CITIES     CLOUDY    36  35  96 NE12      30.14F WCI  28
MIDLAND        CLOUDY    38  34  84 NE9       30.14F WCI  32
TROY           CLOUDY    43  38  80 NE6       30.11S
SAGINAW HB     CLOUDY    36  34  93 N8        30.13F WCI  29
$$
MIZ043>046-050>051-056>058-064>065-071>073-077>080-250600-
SOUTHWEST LOWER MICHIGAN

CITY           SKY/WX    TMP DP  RH WIND       PRES   REMARKS
BATTLE CREEK   RAIN      46  45  96 NE13      30.05F FOG
BENTON HARBOR  CLOUDY    42  40  92 W7        30.03S FOG
BIG RAPIDS     LGT RAIN  40  35  81 E9G17     30.10R WCI  35
COLDWATER      CLOUDY    56  46  69 NE9       30.04R
FREMONT        CLOUDY    43  37  80 E8        30.09R
HOLLAND        CLOUDY    48  40  73 E9        30.06R
GRAND RAPIDS   MOCLDY    43  37  79 E18       30.06S
IONIA          MOCLDY    39  35  84 NE8       30.10R WCI  34
KALAMAZOO      HVY RAIN  51  48  89 E6        30.05F FOG
LUDINGTON      LGT RAIN  37  36  99 N5        30.13R WCI  33
MARSHALL       MIX PCPN  47  42  81 NW7G17    30.09R
MOUNT PLEASANT CLOUDY    39  34  83 NE9       30.12F WCI  32
MUSKEGON       CLOUDY    47  39  74 NE10      30.08R
SOUTH HAVEN    LGT RAIN  42  41  97 NW5       30.04R
$$
MIZ016>042-250600-
NORTHERN LOWER MICHIGAN

CITY           SKY/WX    TMP DP  RH WIND       PRES   REMARKS
ALPENA         LGT RAIN  34  34 100 N7        30.19F WCI  28
BEAVER ISLAND  CLOUDY    34  33  96 NE8       30.20F WCI  27
BELLAIRE       MIX PCPN  35  33  91 CALM      30.19R
CADILLAC       LGT RAIN  34  33  96 NE9       30.12R WCI  27
CHARLEVOIX     CLOUDY    34  34 100 NE7       30.21S WCI  28
FRANKFORT      LGT RAIN  36  32  88 NE3       30.18R
GAYLORD        LGT RAIN  35  32  88 NE9       30.15R WCI  28
GRAYLING       RAIN      34  32  93 E6        30.16S WCI  29
HARBOR SPRINGS CLOUDY    34  33  95 NE10      30.19S WCI  26
HOUGHTON LAKE  LGT RAIN  34  32  92 E9        30.15S WCI  27
MANISTEE       LGT RAIN  36  34  92 N6        30.15R WCI  31
OSCODA         MIX PCPN  35  34  95 NE10      30.17S WCI  28
PELLSTON       CLOUDY    34  31  88 NE6       30.20S WCI  29
ROGERS CITY    CLOUDY    34  33  95 NE5         N/A  WCI  30
TRAVERSE CITY  LGT RAIN  36  34  92 NE7       30.16S WCI  30
$$
MIZ007>008-015-250600-
EASTERN UPPER MICHIGAN

CITY           SKY/WX    TMP DP  RH WIND       PRES   REMARKS
KINROSS        CLOUDY    34  31  88 NE6       30.22S WCI  29
MACKINAC ISLAN CLOUDY    33  33 100 NE7       30.21R WCI  27
NEWBERRY       CLOUDY    32  32  99 N6        30.21S WCI  26
S. S. MARIE    CLOUDY    36  30  79 CALM      30.23R
MUNISING         N/A     34  31  88 N13       30.23S WCI  25
$$
MIZ004>006-011>014-085-250600-
CENTRAL UPPER MICHIGAN

CITY           SKY/WX    TMP DP  RH WIND       PRES   REMARKS
MANISTIQUE     CLOUDY    34  32  93 NE6       30.21S WCI  29
ESCANABA       CLOUDY    35  33  92 N6        30.22S WCI  30
MENOMINEE        N/A    N/A N/A N/A MISG        N/A
SAWYER-GWINN   CLOUDY    32  31  95 NE13      30.22S WCI  22
$$
MIZ001>003-009>011-084-250600-
WESTERN UPPER MICHIGAN

CITY           SKY/WX    TMP DP  RH WIND       PRES   REMARKS
IRON MOUNTAIN  CLOUDY    34  30  85 N3        30.19F
HOUGHTON       CLOUDY    33  24  69 NE10      30.24F WCI  25
COPPER HARBOR    N/A     34  27  75 E8        30.28S WCI  27
IRONWOOD       CLOUDY    33  32  96 E9        30.22F FOG     WCI  25
$$

ABBREVIATIONS USED IN REMARKS
   TC - TEMPERATURE IN CELSIUS
  WCI - WIND CHILL INDEX
   HX - HEAT INDEX
  VSB - VISIBILITY





USA.gov is the U.S. government's official web portal to all federal, state and local government web resources and services.